Regional Weather Roundup
Issued by NWS Goodland, KS

Home | Current Version | Previous Version | Text Only | Print | Product List | Glossary Off
Versions: 1 2 3 4 5 6 7 8 9 10 11 12 13 14 15 16 17 18 19 20 21 22 23 24 25 26 27 28 29 30 31 32 33 34 35 36 37 38 39 40 41 42 43 44 45 46 47 48 49 50

000
ASUS43 KGLD 221959
RWRGLD

GOODLAND FORECAST AREA HOURLY WEATHER ROUNDUP
NATIONAL WEATHER SERVICE GOODLAND KS
200 PM MDT TUE AUG 22 2017

...OFFICIAL OBSERVATIONS...

CITY           SKY/WX    TMP DP  RH WIND       PRES   REMARKS
GOODLAND KS    SUNNY     77  57  50 SE10      30.28F
HILL CITY KS   SUNNY     85  46  25 NE14      30.22F
IMPERIAL NEB   SUNNY     79  45  29 SE12      30.26F
MCCOOK NEB     SUNNY     80  51  36 CALM      30.25F
AKRON CO       SUNNY     79  49  34 S17G23    30.29F
BURLINGTON CO  SUNNY     75  57  53 VRB7      30.31F
LIMON CO       MOSUNNY   75  57  53 S16G24    30.34F
$$

...UNOFFICIAL OBSERVATIONS...

CITY           SKY/WX    TMP DP  RH WIND       PRES   REMARKS
LENORA KS        N/A     79  32  18 CALM        N/A
NORTON KS      SUNNY     81  39  22 NE6       30.23S
TRENTON NEB      N/A     81  32  17 CALM        N/A
KIT CARSON CO    N/A     75  58  54 MISG        N/A
YUMA CO        FAIR      73  46  38 SE10G18   30.29F
$$



USA.gov is the U.S. government's official web portal to all federal, state and local government web resources and services.